Location: Washington
(38.8950°N, 77.0370°W)
Time: 16:34:53
(UTC-04:00)

IDEFIX/ARIANE 42P - Visible Passes

Search period start: 25 July 2014 00:00
Search period end: 04 August 2014 00:00
Orbit: 785 x 805 km, 98.3° (Epoch: 25 July)

Date Brightness Start Highest point End Pass type
(mag) Time Alt. Az. Time Alt. Az. Time Alt. Az.
25 Jul 5.0 22:07:57 10° SW 22:11:25 18° W 22:14:54 10° NW visible
26 Jul 4.2 21:38:26 10° SSW 21:43:06 33° W 21:47:46 10° NNW visible
27 Jul 3.1 21:09:44 10° S 21:14:53 61° W 21:20:03 10° NNW visible
28 Jul 5.3 22:24:50 10° WSW 22:26:53 12° W 22:28:57 10° WNW visible
29 Jul 4.7 21:54:24 10° SSW 21:58:30 23° W 22:02:37 10° NW visible
30 Jul 3.7 21:25:18 10° S 21:30:14 43° W 21:35:10 10° NNW visible
31 Jul 2.7 20:56:51 10° S 21:02:04 81° WSW 21:07:17 10° NNW visible
01 Aug 5.1 22:10:43 10° SW 22:13:56 16° W 22:17:10 10° NW visible
02 Aug 4.3 21:41:04 10° SSW 21:45:36 30° W 21:50:09 10° NW visible
03 Aug 3.2 21:12:17 10° S 21:17:23 57° W 21:22:29 10° NNW visible
